weather station
Area: 7197 km2
The highest point: Čupec (819 m.s.l.)
Total stations: 30
Stations online: 30
Stations offline: 0
Current weather
19°C

Meteorological map - weather stations in Jihomoravský

. The meteorological maps show weather information from WARIO weather stations

Weather stations Jihomoravský

 UpdatesNameStatusTemperatureHumidityWind speedWind direction
23.6.2017 01:58Adamov16.5 °C56.3 %4.4 m/s N
23.6.2017 01:58Boskovice18.6 °C77.8 %2.2 m/s SW
23.6.2017 01:58Brno - Jundrov19.4 °C81.8 %1.4 m/s SW
23.6.2017 01:58Brno - Vinohrady17.9 °C90.4 %6.5 m/s N
23.6.2017 01:58Brno19.0 °C73.6 %2.1 m/s W
23.6.2017 01:58Brno-Kníničky17.5 °C91.4 %0.6 m/s W
23.6.2017 01:58Býkovice16.4 °C90.9 %1.7 m/s W
23.6.2017 01:58Bítov20.1 °C69.7 %0.0 m/s E
23.6.2017 01:58Diváky18.6 °C69.6 %1.0 m/s E
23.6.2017 01:57Hodonín22.9 °C58.9 %1.1 m/s W
23.6.2017 01:58Moravany17.2 °C78.9 %3.3 m/s SW
23.6.2017 01:58Lesní Hluboké16.4 °C84.2 %0.9 m/s E
23.6.2017 01:58Višňové19.9 °C65.4 %0.0 m/s W
23.6.2017 01:58Vranov16.0 °C92.3 %2.4 m/s N
23.6.2017 01:58Dolní Dubňany19.8 °C69.9 %2.0 m/s SW
23.6.2017 01:58Bzenec20.6 °C66.0 %0.7 m/s S
23.6.2017 01:57Nová Lhota24.3 °C52.4 %0.0 m/s SW
23.6.2017 01:58Brno19.5 °C77.2 %2.2 m/s N
23.6.2017 01:58Šerkovice17.5 °C87.6 %2.2 m/s SW
23.6.2017 01:58Skalice u Znojma22.3 °C60.4 %0.0 m/s E
23.6.2017 01:58Brno-střed18.9 °C73.1 %2.4 m/s W
23.6.2017 01:57Strážnice20.5 °C73.0 %0.0 m/s NE
23.6.2017 01:58Němčičky19.4 °C70.2 %3.2 m/s NW
23.6.2017 01:58Valtice21.0 °C57.1 %0.9 m/s S
23.6.2017 01:58Veselí nad Moravou LMK10919.1 °C71.9 %2.9 m/s N
23.6.2017 01:58Veselí nad Moravou20.5 °C62.3 %0.0 m/s W
23.6.2017 01:58Lipov23.3 °C56.1 %1.6 m/s W
23.6.2017 01:58Strachotín20.0 °C73.4 %3.2 m/s N
23.6.2017 01:58Terezín20.1 °C69.8 %1.4 m/s SW
23.6.2017 01:58Brno - Královo Pole18.4 °C77.1 %0.7 m/s W
Email notifications
Enter your email address to subscribe to notifications about news at warioweather.com. Your email address will not be used for any purpose other than sending these emails and will not be provided to any third party. The subscription can be ended at any time.
All data are only indicative. The portal administrator has no responsibility for potentially incorrect data and related consequences. Publishing or further sharing of content from www.warioweather.com is only allowed with written consent from WANET s.r.o.